World > North America > United States > North Dakota

Hourly Kongsberg, ND Regional Weather

Feedback E-mail the Weather

Quick WX

Kongsberg, ND Weather Maps

°F °C°F °C
Kongsberg Weather Map
UTC Time: 6/25/2022, 20:03
Your Time:

Kongsberg, ND Regional Weather

Expires:202206252100;;180630
ASUS43 KBIS 252002
RWRND 

NORTH DAKOTA REGIONAL WEATHER ROUNDUP
NATIONAL WEATHER SERVICE BISMARCK ND
300 PM CDT SAT JUN 25 2022

NOTE: "FAIR" INDICATES FEW OR NO CLOUDS BELOW 12,000 FEET WITH NO
SIGNIFICANT WEATHER AND/OR OBSTRUCTIONS TO VISIBILITY.



NDZ018>021-031>035-040>046-252100-
SOUTHWEST NORTH DAKOTA
  
CITY           SKY/WX    TMP DP  RH WIND       PRES   REMARKS
BISMARCK       CLOUDY    68  44  42 W23G35    30.10F                  
DICKINSON      CLOUDY    62  41  46 W28G43    30.15S                  
GARRISON         N/A     58  45  62 W22G38    30.08R                  
HETTINGER ARPT   N/A     66  42  41 NW29G41   30.21S                  
$$
 

SKY/WX - Weather  TMP - Temperature  DP - Dew Point  RH - Humidity
WIND - Wind Direction/Speed PRES - Barometric Pressure VSB - Visibility
WCI - Wind Chill Index E13G22 Wind - East Wind 13 mph/Gusts of 22 mph

Trending Headlines

Kongsberg Radar Loop



Kongsberg Quick Facts


National Two Day Weather Forecast


E-mail the Kongsberg Weather Forecast

Voice your opinion or tell us about page issues...